Voltar ao catálogo

COSMOS 375 DEB

AtivoLEO
NORAD 4724·DEBRIS·🇷🇺 Russia

Lançado Oct 30, 1970 de Baikonur Cosmodrome

Loading…

Próximas Passagens (próximas 24 horas)

TLE

AtualizadoSource: Space-Track

Época: Sep 14, 2026, 11:51 UTC

1 04724U 70091V   26257.49412118  .00001510  00000-0  26631-3 0  9994
2 04724  62.7768 228.8901 0400092 174.6351 185.9203 14.30461356771946

Acompanhe COSMOS 375 DEB em tempo real com AllMySat

Download on the App Store